Weather History for KOGB - March, 2013

Change the Weather History Date:

Wednesday, March 27, 2013

  Actual Average Record
Temperature  
Mean Temperature 45 °F 59 °F  
Max Temperature 58 °F 72 °F - ()
Min Temperature 32 °F 47 °F - ()
Degree Days  
Heating Degree Days 20 6  
Month to date heating degree days 397 253  
Since 1 July heating degree days 2030 2185  
Cooling Degree Days 0 1  
Month to date cooling degree days 3 19  
Year to date cooling degree days 23 22  
Moisture  
Dew Point 25 °F    
Average Humidity 49    
Maximum Humidity 76    
Minimum Humidity 24    
Precipitation  
Precipitation 0.00 in 0.13 in - ()
Month to date precipitation 2.78 3.49  
Year to date precipitation 10.94 11.06  
Sea Level Pressure  
Sea Level Pressure 30.23 in    
Wind  
Wind Speed 5 mph (NW)    
Max Wind Speed 18 mph    
Max Gust Speed 21 mph    
Visibility 10 miles    
Events      
T = Trace of Precipitation, MM = Missing Value Source: NWS Daily Summary

Daily Weather History Graph

Daily Weather History Graph

Search for Another Location

Airport or City:

Trip Planner

Search our weather history database for the weather conditions in past years. The results will help you decide how hot, cold, wet, or windy it might be!

Date:

Astronomy

Mar. 27, 2013 Rise Set
Actual Time 7:17 AM EDT 7:40 PM EDT
Civil Twilight 6:52 AM EDT 8:05 PM EDT
Nautical Twilight 6:23 AM EDT 8:34 PM EDT
Astronomical Twilight 5:53 AM EDT 9:04 PM EDT
Moon 8:18 PM EDT (3/27) 7:09 AM EDT (3/27)
Length of Visible Light 13h 12m
Length of Day
12h 22m
Full, 100% of the Moon is Illuminated
Mar 27
Full
Apr 3
Last Quarter
Apr 10
New
Apr 18
First Quarter
Apr 25
Full

Hourly Weather History & Observations

Time (EDT) Temp. Windchill Dew Point Humidity Pressure Visibility Wind Dir Wind Speed Gust Speed Precip Events Conditions
12:53 AM 41.0 °F 37.1 °F 26.1 °F 55% 30.21 in 10.0 mi NW 5.8 mph - N/A   Clear
1:53 AM 39.0 °F 34.0 °F 26.1 °F 60% 30.22 in 10.0 mi WNW 6.9 mph - N/A   Clear
2:53 AM 37.9 °F 32.7 °F 25.0 °F 60% 30.21 in 10.0 mi NW 6.9 mph - N/A   Clear
3:53 AM 37.0 °F 33.3 °F 26.1 °F 65% 30.21 in 10.0 mi NNW 4.6 mph - N/A   Clear
4:53 AM 35.1 °F - 26.1 °F 70% 30.21 in 10.0 mi Calm Calm - N/A   Clear
5:53 AM 34.0 °F 31.0 °F 26.1 °F 73% 30.23 in 10.0 mi WNW 3.5 mph - N/A   Clear
6:53 AM 33.1 °F 30.0 °F 26.1 °F 75% 30.25 in 10.0 mi NW 3.5 mph - N/A   Clear
7:53 AM 33.1 °F 30.0 °F 26.1 °F 75% 30.27 in 10.0 mi NW 3.5 mph - N/A   Clear
8:53 AM 37.9 °F 34.4 °F 27.0 °F 65% 30.28 in 10.0 mi NW 4.6 mph - N/A   Clear
9:53 AM 45.0 °F 40.6 °F 25.0 °F 46% 30.29 in 10.0 mi North 8.1 mph - N/A   Clear
10:53 AM 48.0 °F - 23.0 °F 37% 30.28 in 10.0 mi Variable 5.8 mph - N/A   Clear
11:53 AM 50.0 °F - 23.0 °F 35% 30.28 in 10.0 mi WNW 8.1 mph - N/A   Clear
12:53 PM 52.0 °F - 23.0 °F 32% 30.26 in 10.0 mi West 8.1 mph - N/A   Clear
1:53 PM 54.0 °F - 21.9 °F 29% 30.24 in 10.0 mi NW 11.5 mph - N/A   Clear
2:53 PM 55.9 °F - 21.9 °F 27% 30.22 in 10.0 mi West 13.8 mph 18.4 mph N/A   Clear
3:53 PM 57.0 °F - 21.0 °F 25% 30.20 in 10.0 mi NNW 8.1 mph 17.3 mph N/A   Clear
4:53 PM 57.9 °F - 21.9 °F 25% 30.19 in 10.0 mi WNW 9.2 mph 20.7 mph N/A   Clear
5:53 PM 57.9 °F - 23.0 °F 26% 30.19 in 10.0 mi West 12.7 mph - N/A   Clear
6:53 PM 55.9 °F - 23.0 °F 28% 30.19 in 10.0 mi West 6.9 mph - N/A   Clear
7:53 PM 53.1 °F - 25.0 °F 34% 30.19 in 10.0 mi West 3.5 mph - N/A   Clear
8:53 PM 46.9 °F - 28.9 °F 50% 30.22 in 10.0 mi Calm Calm - N/A   Clear
9:53 PM 43.0 °F - 28.9 °F 58% 30.24 in 10.0 mi Calm Calm - N/A   Clear
10:53 PM 41.0 °F - 28.9 °F 62% 30.24 in 10.0 mi Calm Calm - N/A   Clear
11:53 PM 39.0 °F - 32.0 °F 76% 30.24 in 10.0 mi Calm Calm - N/A   Clear